SCP
0 0 0 0 0 0 0 0 0 0 0 0 -0 0 0 0 0 0 0 0 0 0 0 0 0 0 0 0 0 0 0 0 0 0 0 0 0 0
0 0 0 0 0 0 0 0 0 0 0 0 0 0 0 0 0 0 0 0 0 0 0 0 0 0 0 0 0 0 0 0 0 0 0 0 0 0
0 0 0 0 0 0 0 0 0 0 0 0 0 -0 -0 -0 -0 -0 -0 -0 -0 0 0 0 0 0 0 0 0 0 0 0 0 0 0 0 0 0
0 0 0 0 0 0 0 0 0 -0 -0 -0 -0 -0 -0 -0 -0 -0 -0 -0 -0 -0 -0 -0 0 0 0 0 0 0 0 0 0 0 0 0 0 -0
0 0 0 0 0 0 -0 -0 -0 -0 -0 -0 -0 -0 -0 -0 -0 -0 -0 -0 -0 -0 -0 -0 -0 -0 -0 0 0 0 0 0 0 0 0 0 0 0
0 0 0 0 0 0 0 0 -0 -0 -0 -0 -0 -0 -0 -0 -0 -0 -0 -0 -0 -0 -0 -0 -0 -0 -0 -0 -0 0 0 0 0 0 0 0 0 0
0 0 0 0 0 0 0 0 0 0 0 -0 -0 -0 -0 -0 -0 -0 -0 -0 -0 -0 -0 -0 0 -0 -0 -0 -0 -0 -0 0 0 0 0 0 0 0
0 0 0 0 0 0 0 0 0 0 0 0 -0 -0 -0 0 0 -0 -0 -0 -0 -0 -0 -0 -0 -0 -0 -0 -0 -0 0 0 0 0 0 0 0 0
0 0 0 0 0 0 0 0 0 0 0 0 0 0 0 0 0 0 0 0 0 0 -0 -0 -0 -0 -0 -0 0 0 -0 0 0 0 0 0 0 0
0 0 0 0 0 0 0 0 0 0 0 0 0 0 0 0 0 0 0 0 0 -0 -0 -0 -0 -0 0 -0 -0 -0 -0 -0 0 0 0 0 0 0
0 0 0 0 0 0 0 0 0 0 0 0 0 0 0 0 0 0 0 0 0 0 -0 -0 -0 -0 -0 -0 -0 -0 0 0 0 0 0 0 0 0
0 0 0 0 0 0 0 0 0 0 0 0 0 0 0 0 0 0 0 0 0 -0 0 -0 0 -0 -0 -0 -0 -0 -0 0 0 0 0 0 0 0
0 0 0 0 0 0 0 0 0 0 0 0 0 0 0 0 0 0 0 0 0 0 0 0 0 0 0 0 -0 -0 -0 -0 0 0 0 0 0 0
0 0 0 0 0 0 0 0 0 0 0 0 0 0 0 0 0 0 0 0 0 0 0 0 0 0 0 0 0 -0 -0 0 0 0 0 0 0 0
0 0 0 0 0 0 0 0 0 0 0 0 0 0 0 0 0 0 0 0 0 0 0 0 0 0 0 0 0 0 -0 -0 0 0 -0 0 0 0
0 0 0 0 0 0 0 0 0 0 0 0 0 0 0 0 0 0 0 0 0 0 0 0 0 0 0 0 0 0 0 0 -0 0 0 0 0 0
0 0 0 0 0 0 0 0 0 0 0 0 0 0 0 0 0 0 0 0 0 0 0 0 0 0 0 0 0 0 0 0 0 0 -0 -0 0 0
0 0 0 0 0 0 0 0 0 0 0 0 0 0 0 0 0 0 0 0 0 0 0 0 0 0 -0 -0 0 0 0 0 0 0 0 0 0 0
0 0 0 0 0 0 0 0 0 0 0 0 0 0 0 0 0 0 0 0 0 0 0 0 0 0 -0 -0 -0 0 0 0 0 0 0 0 0 0
0 0 0 0 0 0 0 0 0 0 0 0 0 0 0 0 0 0 0 0 0 0 0 0 0 0 0 0 -0 0 0 0 0 0 0 0 0 0
0 0 0 0 0 0 0 0 0 0 0 0 0 0 0 0 0 0 0 0 0 0 0 0 0 0 0 0 0 -0 0 0 0 0 0 0 0 0
0 0 0 0 0 0 0 0 0 0 0 0 0 0 0 0 0 0 0 0 0 0 0 0 0 0 0 0 0 0 0 0 0 0 0 0 0 0
0 0 0 0 0 0 0 0 0 0 0 0 0 0 0 0 0 0 0 0 0 0 0 0 0 0 0 0 0 0 0 0 0 0 0 0 0 0
Wind_Speed_500mb
12 13 13 14 16 18 21 27 34 29 43 44 54 56 57 56 56 61 66 72 76 79 81 79 74 71 68 64 70 66 71 74 71 72 91 92 86 108
5 9 11 10 13 16 19 20 26 31 23 48 56 64 64 65 65 65 64 63 63 66 70 78 81 80 75 75 72 72 69 74 69 78 72 76 93 92
6 8 12 17 22 25 27 29 33 41 49 62 65 71 78 83 85 87 90 92 89 77 71 71 77 82 87 89 89 85 85 79 78 73 77 81 83 87
19 19 22 23 27 30 35 42 45 49 59 70 75 79 81 82 85 89 92 91 94 94 98 100 90 78 74 79 85 89 90 90 88 86 79 77 74 77
16 19 25 31 36 42 46 48 51 54 58 66 74 74 76 80 87 88 90 90 94 98 100 101 101 103 101 90 81 85 92 91 84 84 80 76 71 71
18 23 28 34 38 41 44 47 50 53 57 61 66 72 77 79 81 91 100 92 96 92 95 99 100 103 105 104 100 88 77 84 88 87 81 76 75 81
18 24 28 33 35 39 42 45 47 51 54 56 60 64 70 80 85 88 93 103 104 87 104 103 104 104 103 105 101 94 92 84 80 88 89 92 92 83
17 21 26 28 31 33 35 38 41 44 46 49 54 63 67 70 76 81 88 98 108 92 112 122 104 113 110 111 106 101 93 87 88 84 85 87 86 88
17 19 23 28 32 33 32 33 34 37 41 46 53 56 64 64 69 75 77 82 92 101 94 113 98 100 100 106 105 107 103 106 101 93 82 83 78 87
17 19 21 26 31 35 35 36 36 37 41 46 49 52 53 54 56 61 67 78 86 89 78 91 99 109 112 110 105 96 95 95 91 80 79 82 79 76
15 19 23 27 31 37 41 41 41 42 44 45 47 48 49 50 52 61 67 76 92 98 37 83 106 114 116 112 107 103 104 98 95 87 79 85 83 78
15 18 24 29 32 36 41 43 46 50 53 54 51 49 48 49 50 53 60 68 72 83 71 91 101 86 78 113 120 117 112 100 91 93 88 80 82 79
17 20 24 28 32 34 37 40 45 51 51 53 54 54 54 54 55 54 54 59 68 68 74 57 84 86 77 90 121 120 108 102 87 90 93 85 80 71
20 23 26 28 32 34 38 42 44 46 49 52 55 58 62 63 63 64 63 62 62 68 72 58 64 69 84 106 112 118 113 100 81 86 90 83 86 78
23 24 27 30 33 36 38 41 43 46 50 53 56 58 60 62 64 67 67 70 74 76 71 65 63 75 73 89 98 112 103 101 73 67 84 84 90 86
23 27 31 35 37 40 39 40 42 46 49 52 55 58 60 63 65 68 75 80 85 85 80 77 71 77 88 87 85 96 85 72 95 79 83 95 87 80
28 30 31 35 38 42 43 43 45 47 50 51 53 58 61 66 67 68 71 77 80 92 97 90 83 85 80 83 94 65 74 100 78 82 73 80 89 78
31 34 37 39 41 43 45 47 46 48 49 51 53 55 61 64 68 69 69 73 80 87 93 92 95 107 103 91 30 73 89 96 92 81 73 81 83 79
32 34 38 39 41 42 45 47 48 47 48 49 51 54 58 61 64 67 69 74 79 84 88 84 82 88 98 103 111 73 93 97 97 90 78 83 79 91
32 34 34 37 40 43 44 46 46 47 46 48 49 51 54 59 63 65 65 71 77 85 91 83 75 82 86 98 113 118 80 82 86 91 83 78 85 83
32 32 35 37 39 42 44 45 47 47 47 48 48 51 53 56 59 60 62 66 74 78 85 82 80 89 94 91 92 103 100 81 71 79 75 81 85 83
35 35 35 37 41 43 44 46 47 46 45 45 48 50 52 52 57 59 58 67 70 71 77 83 86 92 88 82 89 96 115 98 77 56 46 53 69 55
36 38 37 38 40 42 44 45 46 45 44 45 49 50 52 54 53 52 55 60 67 70 76 80 90 84 82 84 86 90 101 107 98 90 68 75 64 49
Wind_Direction_500mb
277 282 300 310 304 306 311 312 321 323 326 319 322 327 331 327 324 315 307 303 297 292 291 292 294 297 300 300 299 303 305 291 296 288 284 261 267 262
319 329 325 336 346 352 356 353 347 337 320 332 339 339 340 338 336 333 330 325 321 313 303 295 291 290 290 289 293 292 302 294 284 295 293 281 277 275
48 32 32 36 27 17 12 8 357 346 338 337 342 344 344 342 339 337 334 332 329 326 321 315 307 303 296 291 289 289 290 290 290 295 293 282 277 283
51 34 28 18 12 9 4 1 356 351 344 341 341 342 342 339 335 331 330 328 327 325 324 323 323 316 309 302 299 292 287 283 283 286 287 291 288 289
33 21 15 7 4 2 359 355 351 346 344 339 337 338 336 335 332 330 328 325 324 324 322 323 322 321 321 317 309 305 299 291 286 284 283 282 284 290
20 10 5 1 358 354 351 348 345 342 340 337 336 337 339 339 336 333 326 328 326 324 324 325 323 320 318 320 319 317 307 300 294 280 274 280 282 284
15 2 358 353 350 347 346 343 339 338 336 335 337 337 340 339 340 338 334 331 329 336 330 323 323 323 323 321 320 319 318 313 303 293 283 275 272 279
4 357 346 342 339 339 338 337 338 338 338 340 343 342 341 338 335 336 335 333 330 333 329 323 326 324 323 319 317 317 314 308 312 303 297 289 276 271
349 345 336 333 330 331 333 336 336 340 342 343 342 344 339 339 333 330 331 325 321 323 326 316 326 324 325 319 316 312 308 307 309 309 297 294 289 280
334 332 329 327 329 331 335 334 336 337 338 338 338 338 336 333 332 328 327 319 316 324 337 322 329 324 321 318 319 317 314 312 309 300 296 295 293 287
331 328 330 335 339 339 337 335 333 329 330 334 336 333 331 332 336 330 332 331 326 326 343 322 322 328 325 320 321 320 315 312 305 298 298 292 289 286
323 331 337 335 334 335 334 331 331 332 333 331 330 331 334 335 337 338 336 332 332 329 328 329 325 334 327 318 316 317 318 315 312 309 308 302 299 286
326 324 327 326 327 330 333 333 332 329 327 327 329 332 335 338 339 340 339 334 329 319 335 325 319 327 315 309 316 317 320 316 312 308 307 303 301 290
321 322 323 325 329 330 329 326 325 324 325 329 332 336 339 339 340 338 337 334 331 329 337 338 318 314 315 315 313 319 317 317 308 298 303 305 302 296
325 325 328 328 328 327 326 326 327 329 332 333 337 339 339 338 337 334 333 331 331 336 342 342 331 327 316 309 307 318 318 319 321 312 306 309 300 298
325 325 325 328 326 325 327 330 333 335 336 337 338 336 335 337 338 338 336 336 333 335 340 343 337 334 327 322 316 318 319 304 314 306 303 304 311 297
327 322 318 319 321 324 326 331 334 335 335 336 336 336 337 338 340 341 340 340 342 338 337 342 340 336 331 328 323 322 310 315 318 317 305 301 301 305
316 317 321 322 323 325 326 329 333 333 334 335 337 337 337 338 337 339 341 343 342 342 340 342 345 338 333 329 336 315 325 322 322 326 324 316 299 305
311 316 318 320 322 325 327 328 330 332 332 333 335 336 335 334 335 337 340 342 341 341 341 343 345 337 329 321 326 332 321 324 323 320 321 318 304 305
308 311 315 318 321 323 324 324 326 327 329 329 331 333 333 332 333 334 337 338 339 339 339 343 341 333 323 315 314 325 332 316 317 316 317 317 309 308
304 310 314 318 320 320 321 321 323 324 326 325 327 329 333 331 331 330 330 334 335 337 337 340 336 336 330 324 320 323 329 330 323 311 313 313 304 303
306 312 316 317 317 318 317 317 319 321 320 320 323 326 329 328 329 327 329 331 336 336 337 343 334 335 331 325 320 321 328 332 332 327 317 307 302 285
304 309 313 314 313 313 313 315 317 319 318 318 320 323 325 323 326 323 324 330 335 336 342 334 331 332 327 326 323 323 325 333 337 338 340 334 319 289
Wind_Speed_850mb
12 13 13 14 16 18 21 27 34 29 43 44 54 56 57 56 56 61 66 72 76 79 81 79 74 71 68 64 70 66 71 74 71 72 91 92 86 108
5 9 11 10 13 16 19 20 26 31 23 48 56 64 64 65 65 65 64 63 63 66 70 78 81 80 75 75 72 72 69 74 69 78 72 76 93 92
6 8 12 17 22 25 27 29 33 41 49 62 65 71 78 83 85 87 90 92 89 77 71 71 77 82 87 89 89 85 85 79 78 73 77 81 83 87
19 19 22 23 27 30 35 42 45 49 59 70 75 79 81 82 85 89 92 91 94 94 98 100 90 78 74 79 85 89 90 90 88 86 79 77 74 77
16 19 25 31 36 42 46 48 51 54 58 66 74 74 76 80 87 88 90 90 94 98 100 101 101 103 101 90 81 85 92 91 84 84 80 76 71 71
18 23 28 34 38 41 44 47 50 53 57 61 66 72 77 79 81 91 100 92 96 92 95 99 100 103 105 104 100 88 77 84 88 87 81 76 75 81
18 24 28 33 35 39 42 45 47 51 54 56 60 64 70 80 85 88 93 103 104 87 104 103 104 104 103 105 101 94 92 84 80 88 89 92 92 83
17 21 26 28 31 33 35 38 41 44 46 49 54 63 67 70 76 81 88 98 108 92 112 122 104 113 110 111 106 101 93 87 88 84 85 87 86 88
17 19 23 28 32 33 32 33 34 37 41 46 53 56 64 64 69 75 77 82 92 101 94 113 98 100 100 106 105 107 103 106 101 93 82 83 78 87
17 19 21 26 31 35 35 36 36 37 41 46 49 52 53 54 56 61 67 78 86 89 78 91 99 109 112 110 105 96 95 95 91 80 79 82 79 76
15 19 23 27 31 37 41 41 41 42 44 45 47 48 49 50 52 61 67 76 92 98 37 83 106 114 116 112 107 103 104 98 95 87 79 85 83 78
15 18 24 29 32 36 41 43 46 50 53 54 51 49 48 49 50 53 60 68 72 83 71 91 101 86 78 113 120 117 112 100 91 93 88 80 82 79
17 20 24 28 32 34 37 40 45 51 51 53 54 54 54 54 55 54 54 59 68 68 74 57 84 86 77 90 121 120 108 102 87 90 93 85 80 71
20 23 26 28 32 34 38 42 44 46 49 52 55 58 62 63 63 64 63 62 62 68 72 58 64 69 84 106 112 118 113 100 81 86 90 83 86 78
23 24 27 30 33 36 38 41 43 46 50 53 56 58 60 62 64 67 67 70 74 76 71 65 63 75 73 89 98 112 103 101 73 67 84 84 90 86
23 27 31 35 37 40 39 40 42 46 49 52 55 58 60 63 65 68 75 80 85 85 80 77 71 77 88 87 85 96 85 72 95 79 83 95 87 80
28 30 31 35 38 42 43 43 45 47 50 51 53 58 61 66 67 68 71 77 80 92 97 90 83 85 80 83 94 65 74 100 78 82 73 80 89 78
31 34 37 39 41 43 45 47 46 48 49 51 53 55 61 64 68 69 69 73 80 87 93 92 95 107 103 91 30 73 89 96 92 81 73 81 83 79
32 34 38 39 41 42 45 47 48 47 48 49 51 54 58 61 64 67 69 74 79 84 88 84 82 88 98 103 111 73 93 97 97 90 78 83 79 91
32 34 34 37 40 43 44 46 46 47 46 48 49 51 54 59 63 65 65 71 77 85 91 83 75 82 86 98 113 118 80 82 86 91 83 78 85 83
32 32 35 37 39 42 44 45 47 47 47 48 48 51 53 56 59 60 62 66 74 78 85 82 80 89 94 91 92 103 100 81 71 79 75 81 85 83
35 35 35 37 41 43 44 46 47 46 45 45 48 50 52 52 57 59 58 67 70 71 77 83 86 92 88 82 89 96 115 98 77 56 46 53 69 55
36 38 37 38 40 42 44 45 46 45 44 45 49 50 52 54 53 52 55 60 67 70 76 80 90 84 82 84 86 90 101 107 98 90 68 75 64 49
Wind_Direction_850mb
277 282 300 310 304 306 311 312 321 323 326 319 322 327 331 327 324 315 307 303 297 292 291 292 294 297 300 300 299 303 305 291 296 288 284 261 267 262
319 329 325 336 346 352 356 353 347 337 320 332 339 339 340 338 336 333 330 325 321 313 303 295 291 290 290 289 293 292 302 294 284 295 293 281 277 275
48 32 32 36 27 17 12 8 357 346 338 337 342 344 344 342 339 337 334 332 329 326 321 315 307 303 296 291 289 289 290 290 290 295 293 282 277 283
51 34 28 18 12 9 4 1 356 351 344 341 341 342 342 339 335 331 330 328 327 325 324 323 323 316 309 302 299 292 287 283 283 286 287 291 288 289
33 21 15 7 4 2 359 355 351 346 344 339 337 338 336 335 332 330 328 325 324 324 322 323 322 321 321 317 309 305 299 291 286 284 283 282 284 290
20 10 5 1 358 354 351 348 345 342 340 337 336 337 339 339 336 333 326 328 326 324 324 325 323 320 318 320 319 317 307 300 294 280 274 280 282 284
15 2 358 353 350 347 346 343 339 338 336 335 337 337 340 339 340 338 334 331 329 336 330 323 323 323 323 321 320 319 318 313 303 293 283 275 272 279
4 357 346 342 339 339 338 337 338 338 338 340 343 342 341 338 335 336 335 333 330 333 329 323 326 324 323 319 317 317 314 308 312 303 297 289 276 271
349 345 336 333 330 331 333 336 336 340 342 343 342 344 339 339 333 330 331 325 321 323 326 316 326 324 325 319 316 312 308 307 309 309 297 294 289 280
334 332 329 327 329 331 335 334 336 337 338 338 338 338 336 333 332 328 327 319 316 324 337 322 329 324 321 318 319 317 314 312 309 300 296 295 293 287
331 328 330 335 339 339 337 335 333 329 330 334 336 333 331 332 336 330 332 331 326 326 343 322 322 328 325 320 321 320 315 312 305 298 298 292 289 286
323 331 337 335 334 335 334 331 331 332 333 331 330 331 334 335 337 338 336 332 332 329 328 329 325 334 327 318 316 317 318 315 312 309 308 302 299 286
326 324 327 326 327 330 333 333 332 329 327 327 329 332 335 338 339 340 339 334 329 319 335 325 319 327 315 309 316 317 320 316 312 308 307 303 301 290
321 322 323 325 329 330 329 326 325 324 325 329 332 336 339 339 340 338 337 334 331 329 337 338 318 314 315 315 313 319 317 317 308 298 303 305 302 296
325 325 328 328 328 327 326 326 327 329 332 333 337 339 339 338 337 334 333 331 331 336 342 342 331 327 316 309 307 318 318 319 321 312 306 309 300 298
325 325 325 328 326 325 327 330 333 335 336 337 338 336 335 337 338 338 336 336 333 335 340 343 337 334 327 322 316 318 319 304 314 306 303 304 311 297
327 322 318 319 321 324 326 331 334 335 335 336 336 336 337 338 340 341 340 340 342 338 337 342 340 336 331 328 323 322 310 315 318 317 305 301 301 305
316 317 321 322 323 325 326 329 333 333 334 335 337 337 337 338 337 339 341 343 342 342 340 342 345 338 333 329 336 315 325 322 322 326 324 316 299 305
311 316 318 320 322 325 327 328 330 332 332 333 335 336 335 334 335 337 340 342 341 341 341 343 345 337 329 321 326 332 321 324 323 320 321 318 304 305
308 311 315 318 321 323 324 324 326 327 329 329 331 333 333 332 333 334 337 338 339 339 339 343 341 333 323 315 314 325 332 316 317 316 317 317 309 308
304 310 314 318 320 320 321 321 323 324 326 325 327 329 333 331 331 330 330 334 335 337 337 340 336 336 330 324 320 323 329 330 323 311 313 313 304 303
306 312 316 317 317 318 317 317 319 321 320 320 323 326 329 328 329 327 329 331 336 336 337 343 334 335 331 325 320 321 328 332 332 327 317 307 302 285
304 309 313 314 313 313 313 315 317 319 318 318 320 323 325 323 326 323 324 330 335 336 342 334 331 332 327 326 323 323 325 333 337 338 340 334 319 289